When you browse on this site, cookies collect data to enhance your experience and personalize the content and advertising you see.
Visit our Privacy Policy to learn more. By continuing to use the site, you agree to this use of cookies and data.
  • In Slovakia
  • List of Countries
  • For 7 days
  • Water Temperature
  • Weather Map
  • Weather Widgets
  • user-avatar
    Login

    Hourly Weather Saurimo

    Today, 5 June, Friday

    Time Temperature Precipitation Wind Pressure Humidity
    00:00 +20°C° 0 mm 1 mps 672 mmHg 49%
    01:00 +20°C° 0 mm 1 mps 671 mmHg 50%
    02:00 +18°C° 0 mm 2 mps 671 mmHg 52%
    03:00 +18°C° 0 mm 2 mps 671 mmHg 53%
    04:00 +17°C° 0 mm 2 mps 671 mmHg 54%
    05:00 +18°C° 0 mm 2 mps 672 mmHg 53%
    06:00 +18°C° 0 mm 2 mps 672 mmHg 52%
    07:00 +19°C° 0 mm 2 mps 673 mmHg 51%
    08:00 +22°C° 0 mm 3 mps 673 mmHg 44%
    09:00 +26°C° 0 mm 3 mps 674 mmHg 37%
    10:00 +30°C° 0 mm 3 mps 674 mmHg 29%
    11:00 +31°C° 0 mm 3 mps 674 mmHg 28%
    12:00 +33°C° 0 mm 3 mps 673 mmHg 26%
    13:00 +34°C° 0 mm 2 mps 673 mmHg 24%
    14:00 +34°C° 0 mm 2 mps 673 mmHg 25%
    15:00 +32°C° 0 mm 2 mps 672 mmHg 26%
    16:00 +32°C° 0 mm 2 mps 671 mmHg 27%
    17:00 +29°C° 0 mm 2 mps 671 mmHg 32%
    18:00 +27°C° 0 mm 2 mps 671 mmHg 36%
    19:00 +24°C° 0 mm 2 mps 672 mmHg 41%
    20:00 +23°C° 0 mm 2 mps 672 mmHg 43%
    21:00 +21°C° 0 mm 2 mps 672 mmHg 45%
    22:00 +21°C° 0 mm 1 mps 672 mmHg 47%
    23:00 +20°C° 0 mm 2 mps 671 mmHg 47%

    Tomorrow, 6 June, Saturday

    Time Temperature Precipitation Wind Pressure Humidity
    00:00 +19°C° 0 mm 2 mps 671 mmHg 47%
    01:00 +19°C° 0 mm 2 mps 671 mmHg 47%
    02:00 +18°C° 0 mm 2 mps 671 mmHg 47%
    03:00 +18°C° 0 mm 2 mps 671 mmHg 47%
    04:00 +17°C° 0 mm 2 mps 671 mmHg 47%
    05:00 +18°C° 0 mm 2 mps 671 mmHg 46%
    06:00 +18°C° 0 mm 3 mps 672 mmHg 45%
    07:00 +19°C° 0 mm 3 mps 673 mmHg 44%
    08:00 +22°C° 0 mm 3 mps 673 mmHg 38%
    09:00 +26°C° 0 mm 4 mps 674 mmHg 32%
    10:00 +29°C° 0 mm 4 mps 674 mmHg 26%
    11:00 +32°C° 0 mm 4 mps 674 mmHg 24%
    12:00 +33°C° 0 mm 3 mps 674 mmHg 23%
    13:00 +34°C° 0 mm 3 mps 673 mmHg 21%
    14:00 +34°C° 0 mm 2 mps 673 mmHg 22%
    15:00 +32°C° 0 mm 2 mps 672 mmHg 23%
    16:00 +32°C° 0 mm 2 mps 672 mmHg 24%
    17:00 +29°C° 0 mm 2 mps 672 mmHg 28%
    18:00 +26°C° 0 mm 2 mps 672 mmHg 32%
    19:00 +23°C° 0 mm 1 mps 672 mmHg 37%
    20:00 +22°C° 0 mm 1 mps 671 mmHg 38%
    21:00 +20°C° 0 mm 2 mps 671 mmHg 40%
    22:00 +19°C° 0 mm 2 mps 671 mmHg 42%
    23:00 +19°C° 0 mm 2 mps 671 mmHg 42%

    Day after tomorrow, 7 June, Sunday

    Time Temperature Precipitation Wind Pressure Humidity
    00:00 +18°C° 0 mm 2 mps 671 mmHg 43%
    01:00 +18°C° 0 mm 2 mps 671 mmHg 43%
    02:00 +18°C° 0 mm 2 mps 671 mmHg 44%
    03:00 +17°C° 0 mm 2 mps 671 mmHg 45%
    04:00 +17°C° 0 mm 2 mps 671 mmHg 45%
    05:00 +17°C° 0 mm 3 mps 671 mmHg 45%
    06:00 +18°C° 0 mm 3 mps 672 mmHg 44%
    07:00 +19°C° 0 mm 3 mps 672 mmHg 43%
    08:00 +21°C° 0 mm 4 mps 673 mmHg 39%
    09:00 +25°C° 0 mm 4 mps 674 mmHg 34%
    10:00 +28°C° 0 mm 4 mps 674 mmHg 29%
    11:00 +29°C° 0 mm 4 mps 674 mmHg 27%
    12:00 +31°C° 0 mm 3 mps 673 mmHg 24%
    13:00 +33°C° 0 mm 3 mps 672 mmHg 22%
    14:00 +32°C° 0 mm 2 mps 672 mmHg 22%
    15:00 +31°C° 0 mm 2 mps 672 mmHg 23%
    16:00 +31°C° 0 mm 2 mps 671 mmHg 23%
    17:00 +28°C° 0 mm 2 mps 671 mmHg 28%
    18:00 +25°C° 0 mm 2 mps 671 mmHg 33%
    19:00 +23°C° 0 mm 2 mps 671 mmHg 38%
    20:00 +21°C° 0 mm 2 mps 671 mmHg 39%
    21:00 +20°C° 0 mm 2 mps 671 mmHg 40%
    22:00 +19°C° 0 mm 2 mps 671 mmHg 42%
    23:00 +18°C° 0 mm 2 mps 671 mmHg 43%

    8 June, Monday

    Time Temperature Precipitation Wind Pressure Humidity
    00:00 +18°C° 0 mm 2 mps 671 mmHg 44%
    01:00 +17°C° 0 mm 2 mps 670 mmHg 45%
    02:00 +17°C° 0 mm 2 mps 670 mmHg 47%
    03:00 +16°C° 0 mm 2 mps 670 mmHg 48%
    04:00 +16°C° 0 mm 2 mps 670 mmHg 50%
    05:00 +17°C° 0 mm 3 mps 670 mmHg 49%
    06:00 +17°C° 0 mm 3 mps 671 mmHg 48%
    07:00 +18°C° 0 mm 3 mps 671 mmHg 48%
    08:00 +21°C° 0 mm 3 mps 672 mmHg 42%
    09:00 +25°C° 0 mm 4 mps 672 mmHg 36%
    10:00 +28°C° 0 mm 4 mps 673 mmHg 30%
    11:00 +29°C° 0 mm 3 mps 672 mmHg 28%
    12:00 +31°C° 0 mm 3 mps 672 mmHg 25%
    13:00 +32°C° 0 mm 2 mps 671 mmHg 22%
    14:00 +31°C° 0 mm 2 mps 671 mmHg 23%
    15:00 +31°C° 0 mm 2 mps 671 mmHg 23%
    16:00 +31°C° 0 mm 2 mps 670 mmHg 24%
    17:00 +28°C° 0 mm 2 mps 670 mmHg 28%
    18:00 +25°C° 0 mm 2 mps 670 mmHg 33%
    19:00 +22°C° 0 mm 1 mps 670 mmHg 38%
    20:00 +22°C° 0 mm 1 mps 670 mmHg 39%
    21:00 +20°C° 0 mm 2 mps 671 mmHg 41%
    22:00 +19°C° 0 mm 2 mps 671 mmHg 42%
    23:00 +18°C° 0 mm 2 mps 670 mmHg 44%

    9 June, Tuesday

    Time Temperature Precipitation Wind Pressure Humidity
    00:00 +18°C° 0 mm 2 mps 670 mmHg 45%
    01:00 +17°C° 0 mm 2 mps 670 mmHg 46%
    02:00 +17°C° 0 mm 2 mps 670 mmHg 47%
    03:00 +16°C° 0 mm 2 mps 670 mmHg 47%
    04:00 +16°C° 0 mm 2 mps 670 mmHg 47%
    05:00 +17°C° 0 mm 3 mps 670 mmHg 47%
    06:00 +17°C° 0 mm 3 mps 670 mmHg 46%
    07:00 +18°C° 0 mm 3 mps 671 mmHg 46%
    08:00 +21°C° 0 mm 3 mps 671 mmHg 40%
    09:00 +25°C° 0 mm 4 mps 672 mmHg 34%
    10:00 +28°C° 0 mm 4 mps 673 mmHg 27%
    11:00 +30°C° 0 mm 3 mps 672 mmHg 25%
    12:00 +31°C° 0 mm 3 mps 672 mmHg 22%
    13:00 +32°C° 0 mm 2 mps 672 mmHg 20%
    14:00 +32°C° 0 mm 2 mps 671 mmHg 20%
    15:00 +31°C° 0 mm 2 mps 671 mmHg 21%
    16:00 +31°C° 0 mm 2 mps 670 mmHg 21%
    17:00 +28°C° 0 mm 1 mps 670 mmHg 26%
    18:00 +25°C° 0 mm 1 mps 670 mmHg 31%
    19:00 +22°C° 0 mm 1 mps 670 mmHg 35%
    20:00 +21°C° 0 mm 1 mps 670 mmHg 37%
    21:00 +20°C° 0 mm 1 mps 670 mmHg 38%
    22:00 +19°C° 0 mm 2 mps 670 mmHg 39%
    23:00 +18°C° 0 mm 2 mps 670 mmHg 41%

    10 June, Wednesday

    Time Temperature Precipitation Wind Pressure Humidity
    00:00 +18°C° 0 mm 1 mps 670 mmHg 42%
    01:00 +18°C° 0 mm 1 mps 670 mmHg 43%
    02:00 +16°C° 0 mm 2 mps 670 mmHg 43%
    03:00 +16°C° 0 mm 2 mps 670 mmHg 43%
    04:00 +15°C° 0 mm 2 mps 670 mmHg 44%
    05:00 +16°C° 0 mm 2 mps 670 mmHg 44%
    06:00 +17°C° 0 mm 2 mps 670 mmHg 44%
    07:00 +17°C° 0 mm 3 mps 671 mmHg 44%
    08:00 +21°C° 0 mm 3 mps 671 mmHg 38%
    09:00 +25°C° 0 mm 3 mps 672 mmHg 32%
    10:00 +29°C° 0 mm 4 mps 673 mmHg 26%
    11:00 +30°C° 0 mm 3 mps 672 mmHg 24%
    12:00 +31°C° 0 mm 3 mps 672 mmHg 21%
    13:00 +34°C° 0 mm 2 mps 671 mmHg 18%
    14:00 +32°C° 0 mm 2 mps 671 mmHg 19%
    15:00 +32°C° 0 mm 2 mps 670 mmHg 19%
    16:00 +31°C° 0 mm 2 mps 670 mmHg 20%
    17:00 +28°C° 0 mm 2 mps 670 mmHg 25%
    18:00 +25°C° 0 mm 2 mps 670 mmHg 29%
    19:00 +22°C° 0 mm 1 mps 669 mmHg 34%
    20:00 +21°C° 0 mm 1 mps 670 mmHg 35%
    21:00 +21°C° 0 mm 1 mps 670 mmHg 36%
    22:00 +20°C° 0 mm 1 mps 670 mmHg 37%
    23:00 +19°C° 0 mm 1 mps 670 mmHg 39%
    Show more